CW9386 Weather Reports


Display with metric or nautical units.
time (UTC)temp
F
wind
direction
speed
MPH
gust
MPH
rain 1hr
in
rain 24hr
in
rain mn
in
humidity
%
barometer
mb
20260505092724 60 195 6.0 12.0 0.00 0.00 0.00 46 1012.2
20260505091724 60 173 1.0 5.0 0.00 0.00 0.00 46 1012.2
20260505090716 61 164 3.0 5.0 0.00 0.00 0.00 46 1012.5
20260505085733 61 178 3.0 5.0 0.00 0.00 0.00 45 1012.6
20260505083729 61 279 5.0 8.0 0.00 0.00 0.00 44 1012.6
20260505081717 62 194 3.0 4.0 0.00 0.00 0.00 41 1012.7
20260505074729 64 20 1.0 3.0 0.00 0.00 0.00 35 1013.0
20260505073726 65 19 1.0 5.0 0.00 0.00 0.00 33 1012.9
20260505072720 66 21 3.0 6.0 0.00 0.00 0.00 33 1013.2
20260505071717 66 197 1.0 3.0 0.00 0.00 0.00 33 1013.1
20260505070723 66 252 2.0 7.0 0.00 0.00 0.00 33 1012.8
20260505065716 66 276 5.0 9.0 0.00 0.00 0.00 32 1012.4
20260505064731 67 234 4.0 6.0 0.00 0.00 0.00 30 1012.4
20260505063719 67 271 3.0 7.0 0.00 0.00 0.00 28 1012.5
20260505062734 67 229 2.0 9.0 0.00 0.00 0.00 28 1012.6
20260505061719 67 267 3.0 8.0 0.00 0.00 0.00 28 1012.5
20260505060714 67 246 4.0 7.0 0.00 0.00 0.00 28 1012.9
20260505055725 67 195 2.0 5.0 0.00 0.00 0.00 28 1013.1
20260505054715 68 221 2.0 4.0 0.00 0.00 0.00 27 1013.2
20260505053728 68 234 3.0 7.0 0.00 0.00 0.00 26 1013.0
20260505052728 69 267 1.0 4.0 0.00 0.00 0.00 25 1012.9
20260505051723 69 281 3.0 6.0 0.00 0.00 0.00 24 1013.1
20260505050719 69 260 2.0 4.0 0.00 0.00 0.00 24 1012.8
20260505041714 71 286 4.0 7.0 0.00 0.00 0.00 20 1013.0
20260505040730 71 299 3.0 8.0 0.00 0.00 0.00 19 1013.0
20260505035719 71 265 6.0 10.0 0.00 0.00 0.00 19 1012.9
20260505034712 72 241 4.0 9.0 0.00 0.00 0.00 18 1012.7
20260505033729 73 285 8.0 12.0 0.00 0.00 0.00 18 1012.5
20260505032726 73 263 8.0 12.0 0.00 0.00 0.00 17 1012.1
20260505031717 73 277 6.0 12.0 0.00 0.00 0.00 17 1012.1
20260505030712 74 238 8.0 13.0 0.00 0.00 0.00 17 1012.0
20260505025728 74 269 4.0 11.0 0.00 0.00 0.00 17 1011.8
20260505023721 74 252 5.0 11.0 0.00 0.00 0.00 18 1011.8
20260505022715 75 291 4.0 11.0 0.00 0.00 0.00 19 1011.7
20260505021717 75 269 7.0 11.0 0.00 0.00 0.00 19 1011.5
20260505014722 76 265 7.0 11.0 0.00 0.00 0.00 21 1011.1
20260505012712 76 304 6.0 13.0 0.00 0.00 0.00 20 1011.0
20260505011725 76 248 10.0 15.0 0.00 0.00 0.00 20 1011.0
20260505010719 77 245 8.0 15.0 0.00 0.00 0.00 20 1010.9
20260505004711 77 249 7.0 17.0 0.00 0.00 0.00 19 1010.9
20260505003708 77 277 9.0 17.0 0.00 0.00 0.00 19 1011.4
20260505002719 78 260 11.0 18.0 0.00 0.00 0.00 18 1011.6
20260505001711 78 240 8.0 15.0 0.00 0.00 0.00 18 1011.7
20260504235717 78 271 9.0 19.0 0.00 0.00 0.00 18 1011.7
20260504234710 78 251 10.0 27.0 0.00 0.00 0.00 17 1011.7
20260504233720 79 269 14.0 20.0 0.00 0.00 0.00 17 1011.7
20260504232713 79 240 9.0 17.0 0.00 0.00 0.00 17 1011.7
20260504231707 79 291 12.0 20.0 0.00 0.00 0.00 16 1011.7
20260504230716 80 255 12.0 22.0 0.00 0.00 0.00 16 1011.7
20260504224707 79 227 11.0 19.0 0.00 0.00 0.00 16 1011.8
20260504223721 79 275 12.0 20.0 0.00 0.00 0.00 15 1011.8
20260504222711 79 277 11.0 18.0 0.00 0.00 0.00 15 1012.1
20260504220721 79 232 11.0 22.0 0.00 0.00 0.00 13 1012.4
20260504215714 79 249 9.0 21.0 0.00 0.00 0.00 13 1012.5
20260504214709 79 257 11.0 20.0 0.00 0.00 0.00 14 1012.7
20260504213723 79 246 10.0 19.0 0.00 0.00 0.00 15 1012.6
20260504212713 79 246 8.0 20.0 0.00 0.00 0.00 15 1012.9
20260504211709 79 273 15.0 21.0 0.00 0.00 0.00 16 1013.0
20260504210706 80 266 11.0 17.0 0.00 0.00 0.00 17 1013.2
20260504205716 79 267 12.0 18.0 0.00 0.00 0.00 17 1013.3
20260504204710 79 229 13.0 18.0 0.00 0.00 0.00 17 1013.7
20260504203708 79 248 12.0 18.0 0.00 0.00 0.00 17 1013.8
20260504201703 79 261 14.0 19.0 0.00 0.00 0.00 17 1013.8
20260504200717 79 265 11.0 19.0 0.00 0.00 0.00 17 1013.8
20260504195715 78 248 15.0 20.0 0.00 0.00 0.00 18 1014.2
20260504194702 76 247 11.0 18.0 0.00 0.00 0.00 20 1014.3
20260504193719 75 186 7.0 11.0 0.00 0.00 0.00 24 1014.4
20260504192716 75 200 5.0 11.0 0.00 0.00 0.00 24 1014.5
20260504191709 75 263 9.0 11.0 0.00 0.00 0.00 24 1014.6
20260504190703 74 230 7.0 12.0 0.00 0.00 0.00 25 1014.7
20260504185718 74 228 4.0 12.0 0.00 0.00 0.00 27 1015.0
20260504184709 73 179 6.0 13.0 0.00 0.00 0.00 28 1015.0
20260504183704 72 246 6.0 9.0 0.00 0.00 0.00 28 1015.1
20260504182702 71 237 5.0 9.0 0.00 0.00 0.00 29 1015.2
20260504181711 71 219 5.0 11.0 0.00 0.00 0.00 30 1015.3
20260504180706 71 246 7.0 10.0 0.00 0.00 0.00 31 1015.6
20260504175703 70 238 4.0 12.0 0.00 0.00 0.00 32 1015.8
20260504174701 70 235 6.0 14.0 0.00 0.00 0.00 33 1016.0
20260504173710 70 234 6.0 10.0 0.00 0.00 0.00 33 1016.1
20260504172707 70 243 7.0 11.0 0.00 0.00 0.00 34 1016.0
20260504171658 69 360 3.0 10.0 0.00 0.00 0.00 34 1016.3
20260504170713 69 197 8.0 13.0 0.00 0.00 0.00 35 1016.4
20260504150710 66 209 3.0 7.0 0.00 0.00 0.00 38 1016.5
20260504140713 66 239 1.0 9.0 0.00 0.00 0.00 36 1016.8
20260504130654 64 298 4.0 9.0 0.00 0.00 0.00 36 1015.7
20260504110653 64 94 6.0 8.0 0.00 0.00 0.00 41 1013.6